Tracking 22836 objects as of 18-Apr-2021
HD Live streaming from Space Station
objects crossing your sky now

DELTA 1 DEB

Track DELTA 1 DEB now!
10-day predictions


NORAD ID: 7162
Int'l Code: 1973-086EA
Perigee: 1,257.5 km
Apogee: 1,417.6 km
Inclination: 101.5 °
Period: 112.3 minutes
Semi major axis: 7708 km
RCS: 0.0651 m2 (small)
Launch date: November 6, 1973
Source: United States (US)
Launch site: AIR FORCE WESTERN TEST RANGE (AFWTR)

Note: This is SATELLITE DEBRIS
aabbcc
Your satellite tracking list
Your tracking list is empty




NASA's NSSDC Master Catalog

Two Line Element Set (TLE):
1 07162U 73086EA  21107.95159006  .00000268  00000-0  13040-2 0  9992
2 07162 101.5324 247.5885 0103829  64.3882  56.4453 12.82760396186733
Source of the keplerian elements: AFSPC